Weather in Sapozhok

Russia / Saratov Oblast     52°19′48″N   43°59′04″E
temp.,
°C
wind,
m/s
gust,
m/s
humid.,
%
clouds,
%
prec.,
mm/h
press.,
hPa
HPBL,
m
19 september, sun
sun1901:00+7e5958100 0.0 1024315
04:00+6ese51061100 0.0 1023319
07:00+6ese51063100 0.0 1023312
10:00+8ese5957100 0.0 1023477
13:00+9ese5955100 0.1 1023565
16:00+12ese7842100 0.1 1021814
19:00+11ese61050100 0.2 1021533
22:00+10ese71452100 1.1 1019540
20 september, mon
mon2001:00+9ese81654100 0.7 1019603
04:00+8ese81771100 2.2 1018628
07:00+6ese91881100 4.4 1017624
10:00+6ese91881100 8.1 1017638
13:00+7ese91780100 2.6 1017734
16:00+7ese91684100 3.4 1017684
19:00+7ese91685100 0.0 1017691
22:00+8ese81587100 0.1 1016559
21 september, tue
tue2101:00+7ese71588100 3.1 1016530
04:00+7ese61392100 4.3 1015393
07:00+8ese61293100 0.2 1014386
10:00+10se698087 0.9 1013491
13:00+13se5781100 0.1 1011812
16:00+16sw566744 1.1 10101016
19:00+13wsw487467 0.3 1011253
22:00+9wsw227898 0.3 101114
22 september, wed
wed2201:00+10ese1178100 0.0 101116
04:00+9s358291 0.0 1010125
07:00+9sw258959 0.1 1010148
10:00+10sw3581100 0.2 1010371
13:00+10ssw3476100 0.4 1011508
16:00+11sw3472100 0.6 1010725
19:00+8wsw4790100 0.6 1012416
22:00+6ssw359211 0.8 1012180
23 september, thu
thu2301:00+7ssw3689100 0.0 1012267
04:00+7ssw2490100 0.0 1012160
07:00+7ssw2491100 0.0 1012158
10:00+9ssw3582100 0.1 1013383
13:00+10ssw3572100 0.1 1012691
16:00+11s3464100 0.1 1011992
19:00+9sse2372100 0.1 101167
22:00+8s2372100 0.1 101077